| time (UTC) | temp C | wind direction | speed KPH | gust KPH | rain 1hr cm | rain 24hr cm | rain mn cm | humidity % | barometer mb |
| 20260505171529 | 23 | 224 | 6.4 | 16.1 | 0.00 | 0.00 | 0.00 | 13 | 1008.1 |
| 20260505170024 | 23 | 273 | 4.8 | 17.7 | 0.00 | 0.00 | 0.00 | 5 | 1008.1 |
| 20260505164517 | 23 | 279 | 1.6 | 17.7 | 0.00 | 0.00 | 0.00 | 3 | 1008.3 |
| 20260505163009 | 23 | 224 | 8.0 | 17.7 | 0.00 | 0.00 | 0.00 | 6 | 1008.2 |
| 20260505161503 | 23 | 227 | 9.7 | 22.5 | 0.00 | 0.00 | 0.00 | 1 | 1008.2 |
| 20260505153057 | 22 | 238 | 4.8 | 25.7 | 0.00 | 0.00 | 0.00 | 1 | 1008.1 |
| 20260505151550 | 22 | 275 | 6.4 | 22.5 | 0.00 | 0.00 | 0.00 | 2 | 1008.1 |
| 20260505124505 | -17 | 0.0 | 0.0 | 0.00 | 0.00 | 0.00 | 1007.2 | ||
| 20260505123113 | -17 | 0.0 | 0.0 | 0.00 | 0.00 | 0.00 | 1006.9 | ||
| 20260505121552 | -17 | 0.0 | 0.0 | 0.00 | 0.00 | 0.00 | 1006.7 | ||
| 20260505120049 | -17 | 0.0 | 0.0 | 0.00 | 0.00 | 0.00 | 1006.8 | ||
| 20260505114604 | -17 | 0.0 | 0.0 | 0.00 | 0.00 | 0.00 | 1006.6 | ||
| 20260505113041 | -17 | 0.0 | 0.0 | 0.00 | 0.00 | 0.00 | 1006.4 | ||
| 20260505111552 | -17 | 0.0 | 0.0 | 0.00 | 0.00 | 0.00 | 1006.8 | ||
| 20260505101518 | -17 | 0.0 | 0.0 | 0.00 | 0.00 | 0.00 | 1006.8 | ||
| 20260505100013 | -17 | 0.0 | 0.0 | 0.00 | 0.00 | 0.00 | 1006.7 | ||
| 20260505094509 | -17 | 0.0 | 0.0 | 0.00 | 0.00 | 0.00 | 1006.8 | ||
| 20260505093004 | -17 | 0.0 | 0.0 | 0.00 | 0.00 | 0.00 | 1006.9 | ||
| 20260505091600 | -67 | 278 | 3.2 | 24.1 | 0.00 | 0.00 | 0.00 | 1 | 1006.9 |
| 20260505090059 | 21 | 205 | 4.8 | 19.3 | 0.00 | 0.00 | 0.00 | 1 | 1007.0 |
| 20260505084551 | 21 | 271 | 6.4 | 19.3 | 0.00 | 0.00 | 0.00 | 1 | 1007.3 |
| 20260505083059 | 21 | 210 | 8.0 | 20.9 | 0.00 | 0.00 | 0.00 | 3 | 1007.3 |
| 20260505081548 | 21 | 214 | 3.2 | 19.3 | 0.00 | 0.00 | 0.00 | 5 | 1007.6 |
| 20260505080042 | 21 | 216 | 6.4 | 16.1 | 0.00 | 0.00 | 0.00 | 3 | 1007.9 |
| 20260505074536 | 21 | 171 | 6.4 | 17.7 | 0.00 | 0.00 | 0.00 | 5 | 1008.0 |
| 20260505073031 | 21 | 288 | 6.4 | 16.1 | 0.00 | 0.00 | 0.00 | 7 | 1008.1 |
| 20260505071536 | 21 | 188 | 6.4 | 17.7 | 0.00 | 0.00 | 0.00 | 9 | 1008.3 |
| 20260505070032 | 21 | 215 | 6.4 | 22.5 | 0.00 | 0.00 | 0.00 | 11 | 1008.4 |
| 20260505064540 | 21 | 202 | 6.4 | 17.7 | 0.00 | 0.00 | 0.00 | 13 | 1008.6 |
| 20260505063023 | 21 | 214 | 8.0 | 14.5 | 0.00 | 0.00 | 0.00 | 13 | 1008.8 |
| 20260505061531 | 21 | 222 | 6.4 | 20.9 | 0.00 | 0.00 | 0.00 | 14 | 1008.9 |
| 20260505060026 | 21 | 213 | 11.3 | 19.3 | 0.00 | 0.00 | 0.00 | 15 | 1008.8 |
| 20260505054517 | 21 | 174 | 4.8 | 20.9 | 0.00 | 0.00 | 0.00 | 19 | 1008.6 |
| 20260505053016 | 21 | 222 | 6.4 | 20.9 | 0.00 | 0.00 | 0.00 | 25 | 1008.6 |
| 20260505051513 | 21 | 205 | 9.7 | 22.5 | 0.00 | 0.00 | 0.00 | 31 | 1008.6 |
| 20260505041612 | 22 | 233 | 6.4 | 22.5 | 0.00 | 0.00 | 0.00 | 50 | 1008.5 |
| 20260505040050 | 22 | 212 | 4.8 | 22.5 | 0.00 | 0.00 | 0.00 | 53 | 1008.5 |
| 20260505034547 | 22 | 254 | 6.4 | 20.9 | 0.00 | 0.00 | 0.00 | 55 | 1008.6 |
| 20260505033040 | 22 | 177 | 6.4 | 20.9 | 0.00 | 0.00 | 0.00 | 59 | 1008.5 |
| 20260505031536 | 22 | 224 | 6.4 | 16.1 | 0.00 | 0.00 | 0.00 | 60 | 1008.4 |
| 20260505030032 | 22 | 235 | 4.8 | 17.7 | 0.00 | 0.00 | 0.00 | 61 | 1008.6 |
| 20260505024539 | 22 | 180 | 6.4 | 16.1 | 0.00 | 0.00 | 0.00 | 63 | 1008.3 |
| 20260505023023 | 22 | 205 | 4.8 | 14.5 | 0.00 | 0.00 | 0.00 | 66 | 1008.4 |
| 20260505021519 | 23 | 271 | 3.2 | 16.1 | 0.00 | 0.00 | 0.00 | 67 | 1008.2 |
| 20260505020014 | 23 | 261 | 3.2 | 14.5 | 0.00 | 0.00 | 0.00 | 68 | 1007.9 |
| 20260505014510 | 23 | 210 | 4.8 | 14.5 | 0.00 | 0.00 | 0.00 | 69 | 1008.2 |
| 20260505013015 | 23 | 200 | 3.2 | 9.7 | 0.00 | 0.00 | 0.00 | 69 | 1008.2 |
| 20260505011600 | 24 | 249 | 4.8 | 14.5 | 0.00 | 0.00 | 0.00 | 69 | 1007.9 |
| 20260505010056 | 25 | 280 | 4.8 | 12.9 | 0.00 | 0.00 | 0.00 | 68 | 1008.0 |
| 20260505004551 | 25 | 224 | 4.8 | 14.5 | 0.00 | 0.00 | 0.00 | 67 | 1007.9 |
| 20260505003046 | 25 | 222 | 4.8 | 16.1 | 0.00 | 0.00 | 0.00 | 66 | 1007.8 |
| 20260505001550 | 26 | 228 | 4.8 | 12.9 | 0.00 | 0.00 | 0.00 | 65 | 1008.0 |
| 20260505000042 | 26 | 216 | 3.2 | 14.5 | 0.00 | 0.00 | 0.00 | 64 | 1008.2 |
| 20260504234533 | 26 | 214 | 8.0 | 19.3 | 0.00 | 0.00 | 0.00 | 63 | 1008.2 |
| 20260504233029 | 26 | 214 | 8.0 | 14.5 | 0.00 | 0.00 | 0.00 | 61 | 1008.3 |
| 20260504231530 | 27 | 203 | 3.2 | 29.0 | 0.00 | 0.00 | 0.00 | 62 | 1008.3 |
| 20260504230019 | 27 | 189 | 8.0 | 19.3 | 0.00 | 0.00 | 0.00 | 60 | 1008.6 |
| 20260504224517 | 27 | 231 | 8.0 | 24.1 | 0.00 | 0.00 | 0.00 | 59 | 1008.7 |
| 20260504223010 | 27 | 256 | 6.4 | 24.1 | 0.00 | 0.00 | 0.00 | 59 | 1008.8 |
| 20260504221506 | 27 | 266 | 8.0 | 22.5 | 0.00 | 0.00 | 0.00 | 60 | 1009.0 |
| 20260504220003 | 27 | 278 | 6.4 | 20.9 | 0.00 | 0.00 | 0.00 | 61 | 1008.9 |
| 20260504214556 | 27 | 226 | 6.4 | 17.7 | 0.00 | 0.00 | 0.00 | 60 | 1009.2 |
| 20260504213051 | 26 | 228 | 9.7 | 20.9 | 0.00 | 0.00 | 0.00 | 62 | 1009.5 |
| 20260504211551 | 27 | 234 | 8.0 | 14.5 | 0.00 | 0.00 | 0.00 | 61 | 1009.8 |
| 20260504204547 | 27 | 227 | 8.0 | 22.5 | 0.00 | 0.00 | 0.00 | 60 | 1010.4 |
| 20260504203037 | 27 | 233 | 8.0 | 20.9 | 0.00 | 0.00 | 0.00 | 61 | 1010.6 |
| 20260504201530 | 27 | 218 | 6.4 | 16.1 | 0.00 | 0.00 | 0.00 | 61 | 1010.9 |
| 20260504200026 | 27 | 221 | 4.8 | 16.1 | 0.00 | 0.00 | 0.00 | 60 | 1011.3 |
| 20260504194533 | 26 | 226 | 1.6 | 14.5 | 0.00 | 0.00 | 0.00 | 62 | 1011.4 |
| 20260504193019 | 26 | 292 | 6.4 | 17.7 | 0.00 | 0.00 | 0.00 | 62 | 1011.7 |
| 20260504191511 | 26 | 242 | 8.0 | 25.7 | 0.00 | 0.00 | 0.00 | 62 | 1012.1 |
| 20260504190006 | 25 | 218 | 4.8 | 17.7 | 0.00 | 0.00 | 0.00 | 63 | 1012.1 |
| 20260504184506 | 25 | 220 | 4.8 | 27.4 | 0.00 | 0.00 | 0.00 | 63 | 1012.2 |
| 20260504183058 | 25 | 276 | 4.8 | 22.5 | 0.00 | 0.00 | 0.00 | 63 | 1012.5 |
| 20260504181558 | 25 | 249 | 9.7 | 20.9 | 0.00 | 0.00 | 0.00 | 63 | 1012.8 |
| 20260504180135 | 25 | 219 | 8.0 | 16.1 | 0.00 | 0.00 | 0.00 | 62 | 1013.0 |
| 20260504174548 | 26 | 268 | 11.3 | 22.5 | 0.00 | 0.00 | 0.00 | 59 | 1013.2 |
| 20260504173046 | 25 | 254 | 9.7 | 20.9 | 0.00 | 0.00 | 0.00 | 60 | 1013.4 |